Flag for Germany Weather past 2 weeks in Gütersloh, North Rhine-Westphalia, Germany

Now
53 °F

Overcast.


Feels Like: 52 °F
Forecast: 47 / 58 °F
Wind: 5 mph from Southwest

Location: Bad Lippspringe

Current Time: May 6, 2015 at 6:34:52 PM

Latest Report: May 6, 2015 at 6:00 PM


Visibility: 31 mi

Pressure: 29.89 "Hg

Humidity: 79%

Dew point: 47 °F

Location of GüterslohLocation

Historic Weather in Gütersloh — Graph

°F

Gütersloh temperature yesterday

Maximum temperature yesterday: 75 °F (at 3:00 PM)
Minimum temperature yesterday: 48 °F (at 11:00 PM)
Average temperature yesterday: 63 °F

Past Weeks' High & Low Weather Summary

 TemperatureHumidityPressure
High75 °F (May 5, 3:00 PM)100% (May 1, 5:00 AM)30.45 "Hg (May 1, 5:00 AM)
Low30 °F (Apr 29, 6:00 AM)24% (Apr 21, 5:00 PM)29.47 "Hg (May 5, 5:00 AM)
Average51 °F74%29.89 "Hg
* Reported Apr 21 5:00 PM — May 6 5:00 PM, Gütersloh, Weather by CustomWeather, © 2015

Note: Actual official high and low records may vary slightly from our data, if they occured in-between our weather recording intervals... More about our weather records

Advertising

Gütersloh weather history for previous 24 hours

 ConditionsComfort  
Time TempWeatherWind HumidityBarometerVisibility
5:00 PM
Wed, May 6
62 °FOvercast.7 mph43%29.84 "Hg31 mi
4:00 PM62 °FOvercast.8 mph41%29.85 "Hg17 mi
3:00 PM63 °FPartly sunny.10 mph40%29.85 "Hg13 mi
2:00 PM61 °FOvercast.8 mph42%29.85 "Hg25 mi
1:00 PM62 °FScattered clouds.8 mph44%29.86 "Hg14 mi
12:00 PM61 °FPartly sunny.8 mph45%29.87 "Hg11 mi
11:00 AM59 °FPassing clouds.8 mph47%29.88 "Hg14 mi
10:00 AM57 °FPassing clouds.7 mph59%29.88 "Hg19 mi
9:00 AM57 °FSunny.5 mph59%29.89 "Hg16 mi
8:00 AM54 °FOvercast.3 mph70%29.88 "Hg25 mi
7:00 AM51 °FPassing clouds.2 mph77%29.88 "Hg25 mi
6:00 AM52 °FPassing clouds.3 mph77%29.86 "Hg25 mi
5:00 AM52 °FPassing clouds.2 mph76%29.85 "Hg25 mi
4:00 AM52 °FPassing clouds.2 mph75%29.85 "Hg25 mi
3:00 AM50 °FPassing clouds.1 mph81%29.86 "Hg22 mi
2:00 AM46 °FPassing clouds.1 mph94%29.85 "Hg15 mi
1:00 AM46 °FClear.1 mph93%29.85 "Hg11 mi
12:00 AM50 °FClear.3 mph85%29.85 "Hg19 mi
11:00 PM
Tue, May 5
48 °FClear.2 mph89%29.84 "Hg17 mi
10:00 PM55 °FClear.3 mph73%29.82 "Hg19 mi
9:00 PM58 °FClear.6 mph69%29.78 "Hg34 mi
8:00 PM59 °FPassing clouds.6 mph75%29.74 "Hg25 mi
7:00 PM59 °FLight rain. Overcast.7 mph77%29.72 "Hg28 mi
6:00 PM59 °FDrizzle. Overcast.7 mph90%29.68 "Hg9 mi
Weather by CustomWeather, © 2015

See weather overviewHow to use our weather pages